Location: ????????
(55.4095°N, 38.7184°E)
Time: 09:05:06
(UTC+00:00)

Cosmos 1553 Rocket - Visible Passes

Search period start: 09 June 2026 00:00
Search period end: 19 June 2026 00:00
Orbit: 941 x 1007 km, 82.9° (Epoch: 9 June)

Date Brightness Start Highest point End Pass type
(mag) Time Alt. Az. Time Alt. Az. Time Alt. Az.
9 Jun 4.3 19:00:02 10° SSE 19:06:14 56° E 19:12:23 10° NNE visible
9 Jun 5.3 20:46:03 10° SW 20:51:54 37° WNW 20:57:43 10° N visible
9 Jun 6.6 22:37:57 10° NW 22:39:23 11° NW 22:40:47 10° NNW visible
10 Jun 4.1 19:24:42 10° S 19:31:05 86° E 19:37:25 10° NNE visible
10 Jun 5.9 21:12:07 10° WSW 21:17:17 25° WNW 21:22:24 10° N visible
11 Jun 4.5 19:49:46 10° SSW 19:56:05 63° WNW 20:02:21 10° N visible
11 Jun 6.3 21:38:43 10° W 21:42:48 17° NW 21:46:53 10° N visible
12 Jun 5.2 20:15:15 10° SW 20:21:14 42° WNW 20:27:10 10° N visible
12 Jun 6.6 22:06:12 10° WNW 22:08:32 12° NW 22:10:50 10° NNW visible
13 Jun 5.8 20:41:10 10° WSW 20:46:32 28° WNW 20:51:53 10° N visible
14 Jun 4.3 19:19:08 10° SSW 19:25:28 72° WNW 19:31:46 10° N visible
14 Jun 6.3 21:07:36 10° W 21:12:02 19° NW 21:16:26 10° N visible
15 Jun 5.0 19:44:29 10° SW 19:50:34 47° WNW 19:56:37 10° N visible
15 Jun 6.6 21:34:44 10° WNW 21:37:40 13° NW 21:40:37 10° NNW visible
16 Jun 5.7 20:10:16 10° SW 20:15:50 32° WNW 20:21:22 10° N visible
17 Jun 6.3 20:36:31 10° WSW 20:41:16 22° NW 20:45:58 10° N visible
18 Jun 4.8 19:13:45 10° SSW 19:19:56 54° WNW 19:26:03 10° N visible
18 Jun 6.5 21:03:24 10° W 21:06:51 15° NW 21:10:18 10° NNW visible
